Flag for Belgium Weather past 2 weeks in Leuven, Belgium

Now
59 °F

Passing clouds.


Feels Like: 58 °F
Forecast: 55 / 62 °F
Wind: 6 mph from Southwest

Location: Brussels National Airport

Current Time: Aug 31, 2014 at 12:19:23 AM

Latest Report: Aug 30, 2014 at 11:50 PM


Visibility: N/A

Pressure: 30.01 "Hg

Humidity: 88%

Dew point: 55 °F

Location of LeuvenLocation

Historic Weather in Leuven — Graph

°F

Leuven temperature yesterday

Maximum temperature yesterday: 64 °F (at 1:50 PM)
Minimum temperature yesterday: 59 °F (at 5:50 AM)
Average temperature yesterday: 61 °F

Past Weeks' High & Low Weather Summary

 TemperatureHumidityPressure
High72 °F (Aug 28, 4:50 PM)100% (Aug 16, 12:20 AM)30.15 "Hg (Aug 16, 12:20 AM)
Low46 °F (Aug 20, 5:50 AM)49% (Aug 20, 1:50 PM)29.59 "Hg (Aug 26, 2:50 AM)
Average58 °F78%29.94 "Hg
* Reported Aug 15 11:20 PM — Aug 30 11:20 PM, Leuven, Weather by CustomWeather, © 2014

Note: Actual official high and low records may vary slightly from our data, if they occured in-between our weather recording intervals... More about our weather records

Advertising

Leuven weather history for previous 24 hours

 ConditionsComfort  
Time TempWeatherWind HumidityBarometerVisibility
11:20 PM
Aug 30
59 °FPassing clouds.6 mph88%30.01 "HgN/A
10:50 PM59 °FPassing clouds.7 mph94%30.01 "HgN/A
10:20 PM59 °FPassing clouds.6 mph88%30.01 "HgN/A
9:50 PM59 °FPassing clouds.5 mph94%30.04 "HgN/A
9:20 PM59 °FScattered clouds.8 mph94%30.01 "HgN/A
8:50 PM59 °FScattered clouds.6 mph94%30.01 "HgN/A
7:50 PM61 °FBroken clouds.8 mph88%30.01 "HgN/A
7:20 PM63 °FBroken clouds.8 mph88%30.01 "HgN/A
6:50 PM63 °FPartly sunny.10 mph83%30.01 "HgN/A
6:20 PM63 °FPartly sunny.9 mph88%30.01 "HgN/A
5:50 PM63 °FPartly sunny.8 mph88%30.01 "HgN/A
5:20 PM61 °FLight rain. Broken clouds.8 mph94%30.01 "Hg5 mi
4:50 PM61 °FRain. Broken clouds.16 mph88%30.01 "Hg3 mi
4:20 PM64 °FRain. Partly sunny.15 mph83%30.01 "Hg2 mi
3:50 PM64 °FPartly sunny.20 mph78%30.01 "HgN/A
3:20 PM64 °FPartly sunny.18 mph78%30.01 "HgN/A
2:50 PM64 °FPartly sunny.18 mph78%30.01 "HgN/A
2:20 PM64 °FPartly sunny.16 mph78%30.01 "HgN/A
1:50 PM64 °FPartly sunny.14 mph78%30.01 "HgN/A
1:20 PM63 °FDrizzle. Broken clouds.13 mph83%30.01 "HgN/A
12:50 PM63 °FDrizzle. Partly sunny.17 mph83%30.04 "Hg5 mi
12:20 PM63 °FPartly sunny.15 mph83%30.04 "HgN/A
11:50 AM63 °FPartly sunny.15 mph83%30.04 "HgN/A
11:20 AM63 °FPartly sunny.16 mph77%30.04 "HgN/A
10:50 AM61 °FPartly sunny.14 mph83%30.01 "HgN/A
10:20 AM61 °FPartly sunny.14 mph83%30.01 "HgN/A
9:50 AM61 °FLight rain. Partly sunny.13 mph88%30.01 "HgN/A
9:20 AM61 °FPartly sunny.14 mph83%30.01 "HgN/A
8:50 AM61 °FBroken clouds.14 mph83%30.01 "HgN/A
8:20 AM61 °FBroken clouds.13 mph83%30.01 "HgN/A
7:50 AM59 °FPassing clouds.13 mph88%30.01 "HgN/A
7:20 AM61 °FPassing clouds.14 mph83%30.01 "HgN/A
6:50 AM59 °FPassing clouds.13 mph88%30.01 "HgN/A
6:20 AM59 °FSprinkles. Partly cloudy.12 mph88%30.01 "HgN/A
5:50 AM59 °FPartly cloudy.10 mph88%30.01 "HgN/A
5:20 AM61 °FSprinkles. Partly cloudy.13 mph83%30.01 "HgN/A
4:50 AM61 °FClear.13 mph77%30.01 "Hg10 mi
4:20 AM61 °FClear.12 mph77%30.01 "Hg10 mi
3:50 AM61 °FPassing clouds.13 mph77%30.01 "HgN/A
3:20 AM61 °FPassing clouds.12 mph77%30.01 "HgN/A
2:50 AM61 °FPassing clouds.13 mph77%30.04 "HgN/A
2:20 AM61 °FPassing clouds.14 mph77%30.04 "HgN/A
1:50 AM61 °FClear.13 mph77%30.04 "Hg10 mi
1:20 AM61 °FClear.12 mph77%30.04 "Hg10 mi
12:50 AM61 °FClear.13 mph77%30.04 "Hg10 mi
12:20 AM61 °FClear.10 mph77%30.04 "Hg10 mi
Weather by CustomWeather, © 2014

See weather overviewHow to use our weather pages